Miscellaneous Local Product
Issued by NWS North Platte, NE

Home | Current Version | Previous Version | Text Only | Print | Product List | Glossary On
Versions: 1 2 3 4 5 6 7 8 9 10 11 12 13 14 15 16 17 18 19 20 21 22 23 24 25 26 27 28 29 30 31 32 33 34 35 36 37 38 39 40 41 42 43 44 45 46 47 48 49 50
000
AXUS43 KLBF 240910
MISLBF


WESTERN AND NORTH CENTRAL NEBRASKA HOURLY WEATHER ROUNDUP
NATIONAL WEATHER SERVICE NORTH PLATTE NE
400 AM CDT THU JUL 24 2014

***STATIONS NOT REPORTING VARIABLES SUCH AS SKY/WEATHER OR
PRESSURE ARE PROVIDED BY THE NEBRASKA DEPARTMENT OF
ROADS...RAWS...AND APRS NETWORKS...AND ARE NOT UNDER
NATIONAL WEATHER SERVICE QUALITY CONTROL***

...OBSERVATIONS IN AND NEAR THE EASTERN PANHANDLE OF NEBRASKA...

CITY           SKY/WX    TMP DP  RH WIND       PRES   REMARKS
PINE RIDGE     MOCLDY    70  64  81 S24G32    29.98F
CHADRON        MOCLDY    72  65  78 S12       29.99F
ALLIANCE       MOCLDY    67  63  87 SE17      30.05F
SIDNEY         PTCLDY    72  63  73 S16       30.10F
WHITECLAY        N/A     70  62  77 S16         N/A
RUSHVILLE        N/A     70  66  88 S20         N/A
GORDON           N/A     73  68  86 S13         N/A
CRESCENT LAKE    N/A     67  63  88 SE9G18      N/A
LISCO            N/A     73  66  79 E16         N/A
BIG SPRINGS      N/A     68  64  88 S12         N/A
$$

...OBSERVATIONS IN NORTH CENTRAL NEBRASKA...

CITY           SKY/WX    TMP DP  RH WIND       PRES   REMARKS
VALENTINE      CLEAR     67  60  78 S12       30.06F
THEDFORD       CLEAR     68  60  76 SE12      30.10F
AINSWORTH      CLEAR     65  58  77 SE13G20   30.09F
O`NEILL        MOCLDY    66  58  75 SE8       30.10F
ORD            CLEAR     64  59  83 SE3       30.11F
BROKEN BOW     CLEAR     64  60  87 SE6       30.12F
BROWNLEE         N/A     67  61  83 S14         N/A
SPRINGVIEW       N/A     65  59  82 E3          N/A
DUNNING          N/A     67  63  86 S5          N/A
ROSE             N/A     67  65  91 E9          N/A
NEWPORT          N/A     66  62  86 SE8         N/A
SARGENT          N/A     63  60  91 CALM        N/A
COMSTOCK         N/A     69  65  88 S7          N/A
CHAMBERS         N/A     63  59  86 E3          N/A
EWING            N/A     63  59  87 CALM        N/A
$$

...OBSERVATIONS IN SOUTHWEST NEBRASKA AND FAR NORTHEAST COLORADO...

CITY           SKY/WX    TMP DP  RH WIND       PRES   REMARKS
WRAY             N/A     70  65  83 NE6       30.12F
HOLYOKE        FAIR      68  63  83 SE9       30.11F
IMPERIAL       CLEAR     68  62  81 S14       30.11F
OGALLALA       PTCLDY    66  61  83 CALM      30.10F
NORTH PLATTE   CLEAR     67  59  75 SE12      30.10F
MCCOOK         CLEAR     66  62  87 E6        30.12F
LEXINGTON      CLEAR     65  60  86 SE7       30.12F
PAXTON           N/A     69  63  82 SE12        N/A
SUTHERLAND       N/A     69  66  89 S12         N/A
BRADY            N/A     64  59  83 CALM        N/A
GOTHENBURG       N/A     64  58  80 SE3         N/A
CALLAWAY         N/A     63  60  91 S10         N/A
$$

...NORTH PLATTE AREA...

CITY           SKY/WX    TMP DP  RH WIND       PRES   REMARKS
AIRPORT        CLEAR     67  59  75 SE12      30.10F
$$

...SOME WEATHER OBSERVATIONS FROM AROUND THE REGION...

CITY           SKY/WX    TMP DP  RH WIND       PRES   REMARKS
DENVER         MOCLDY    73  46  38 S13       30.15F
LARAMIE        MOCLDY    69  41  36 SW15G23   30.28F
CHEYENNE       CLEAR     63  48  58 S8        30.19F
SCOTTSBLUFF    MOCLDY    68  64  87 SE9       30.04F
RAPID CITY     CLOUDY    66  63  90 S6        29.95F
PIERRE         MOCLDY    70  59  68 SE17      30.01F
WINNER         CLOUDY    71  58  63 SE16G23   30.04F
SIOUX FALLS    CLEAR     64  55  72 E9        30.14F
OMAHA          CLEAR     69  59  70 SE6       30.14F
GRAND ISLAND   CLEAR     65  59  81 SE7       30.12F
KANSAS CITY    PTCLDY    68  59  73 E8        30.12F
WICHITA        CLEAR     71  65  81 E7        30.09F
HAYS           CLEAR     66  57  72 CALM      30.12F
LIBERAL        CLEAR     73  66  78 SE8       30.15F
GOODLAND       CLEAR     68  66  93 S13       30.14F
$$



USA.gov is the U.S. government's official web portal to all federal, state and local government web resources and services.